{"data":{"norad_id":49415,"epoch":"2026-05-25T05:06:23.355648Z","epoch_age_seconds":59750,"freshness":"FRESH","line1":"1 49415U 21104H   26145.21277032  .00000048  00000+0  21074-4 0  9992","line2":"2 49415  53.2136 235.5965 0001053  85.0291 275.0821 15.08833548250315","mean_motion":15.08833548,"eccentricity":0.0001053,"inclination_deg":53.2136,"raan_deg":235.5965,"arg_perigee_deg":85.0291,"mean_anomaly_deg":275.0821,"bstar":2.1074e-5,"rev_number":25031,"period_min":95.437962783155,"perigee_km":539.03465533561,"apogee_km":540.49156509882,"semimajor_km":6917.9001102172,"source":"CELESTRAK","updated_at":"2026-05-25T13:38:16.795632Z"}}